GW3608 Weather Reports


Display with metric or nautical units.
time (UTC)temp
F
wind
direction
speed
MPH
gust
MPH
rain 1hr
in
rain 24hr
in
rain mn
in
humidity
%
barometer
mb
20260505053030 59 165 0.0 6.0 0.00 0.00 0.00 55 1007.4
20260505051536 60 214 0.0 3.0 0.00 0.00 0.00 54 1007.5
20260505041524 56 121 0.0 0.0 0.00 0.00 0.00 62 1007.4
20260505040025 58 121 0.0 2.0 0.00 0.00 0.00 58 1007.4
20260505034526 60 148 0.0 3.0 0.00 0.00 0.00 54 1007.3
20260505033028 60 120 0.0 4.0 0.00 0.00 0.00 53 1007.3
20260505031536 61 159 1.0 5.0 0.00 0.00 0.00 51 1007.2
20260505030023 62 155 1.0 6.0 0.00 0.00 0.00 50 1007.2
20260505024524 62 171 1.0 5.0 0.00 0.00 0.00 50 1007.3
20260505023028 62 165 1.0 4.0 0.00 0.00 0.00 48 1007.4
20260505021533 63 135 0.0 10.0 0.00 0.00 0.00 46 1007.4
20260505020036 63 126 0.0 5.0 0.00 0.00 0.00 45 1007.3
20260505014509 64 300 0.0 6.0 0.00 0.00 0.00 45 1007.4
20260505013008 63 132 1.0 5.0 0.00 0.00 0.00 45 1007.1
20260505011511 64 173 1.0 5.0 0.00 0.00 0.00 44 1007.1
20260505010019 64 162 0.0 4.0 0.00 0.00 0.00 44 1006.9
20260505004512 64 194 1.0 7.0 0.00 0.00 0.00 43 1006.8
20260505003011 64 164 0.0 5.0 0.00 0.00 0.00 43 1006.7
20260505001510 65 132 0.0 5.0 0.00 0.00 0.00 43 1006.5
20260505000014 66 151 1.0 5.0 0.00 0.00 0.00 41 1006.5
20260504234514 66 154 1.0 7.0 0.00 0.00 0.00 40 1006.5
20260504233013 67 174 0.0 6.0 0.00 0.00 0.00 39 1006.3
20260504231515 68 254 1.0 8.0 0.00 0.00 0.00 39 1006.2
20260504230013 68 209 2.0 7.0 0.00 0.00 0.00 37 1006.1
20260504224512 68 126 0.0 7.0 0.00 0.00 0.00 38 1006.2
20260504223017 68 240 1.0 12.0 0.00 0.00 0.00 37 1006.1
20260504221535 69 205 1.0 6.0 0.00 0.00 0.00 36 1006.0
20260504220018 70 153 1.0 5.0 0.00 0.00 0.00 36 1005.9
20260504214516 70 148 1.0 4.0 0.00 0.00 0.00 33 1005.9
20260504213019 71 213 1.0 7.0 0.00 0.00 0.00 36 1006.0
20260504211518 70 179 1.0 7.0 0.00 0.00 0.00 36 1006.2
20260504210022 70 304 0.0 8.0 0.00 0.00 0.00 38 1006.4
20260504204522 70 268 0.0 10.0 0.00 0.00 0.00 35 1006.5
20260504203018 70 194 3.0 13.0 0.00 0.00 0.00 33 1006.7
20260504200018 70 274 2.0 7.0 0.00 0.00 0.00 36 1007.0
20260504194529 68 238 0.0 10.0 0.00 0.00 0.00 38 1007.4
20260504193022 67 150 1.0 6.0 0.00 0.00 0.00 41 1007.4
20260504191532 68 178 1.0 11.0 0.00 0.00 0.00 38 1007.6
20260504190024 69 161 1.0 7.0 0.00 0.00 0.00 39 1007.6
20260504184522 69 242 2.0 8.0 0.00 0.00 0.00 39 1007.7
20260504183022 69 236 2.0 10.0 0.00 0.00 0.00 37 1007.8
20260504181524 67 202 0.0 5.0 0.00 0.00 0.00 41 1007.9
20260504180022 66 253 1.0 5.0 0.00 0.00 0.00 45 1008.1
20260504174524 67 178 3.0 8.0 0.00 0.00 0.00 39 1008.1
20260504173022 67 239 2.0 7.0 0.00 0.00 0.00 45 1008.5
20260504171530 66 73 2.0 7.0 0.00 0.00 0.00 42 1008.3
20260504081514 44 146 0.0 1.0 0.00 0.00 0.00 62 1010.9